Total_Precipitation_Accumulation
0.00 0.01 0.03 0.03 0.03 0.04 0.05 0.06 0.10 0.17 0.18 0.24 0.37 0.50 0.72 0.88 1.10 1.26 1.29 1.25 1.33 1.55 1.86 2.16 2.53 2.88 3.09 3.25 3.36 3.67 3.88 3.59 3.10 2.67 2.16 1.93 1.84 1.66 1.48 1.34 1.25 1.27 1.22 1.33
0.01 0.02 0.02 0.02 0.02 0.03 0.05 0.07 0.13 0.16 0.16 0.21 0.36 0.65 0.82 0.90 0.93 1.00 1.10 1.06 1.09 1.29 1.39 1.48 1.70 2.03 2.12 2.34 2.65 3.03 3.27 3.11 2.57 2.32 2.10 1.95 1.85 1.72 1.67 1.52 1.44 1.28 1.24 1.29
0.01 0.02 0.02 0.02 0.02 0.03 0.06 0.07 0.08 0.12 0.12 0.22 0.38 0.90 1.01 0.90 0.80 0.71 0.82 0.87 0.84 0.92 1.02 1.02 1.10 1.27 1.58 2.05 2.20 2.26 2.52 2.72 2.45 2.31 2.22 2.11 2.00 1.81 1.84 1.73 1.56 1.27 1.17 1.20
0.01 0.01 0.01 0.01 0.02 0.02 0.05 0.05 0.04 0.04 0.09 0.33 0.46 0.91 1.03 0.91 0.89 0.71 0.67 0.66 0.56 0.54 0.70 0.84 0.85 0.91 1.11 1.43 1.72 1.97 2.22 2.39 2.33 2.20 1.99 1.83 1.64 1.53 1.52 1.54 1.55 1.43 1.32 1.16
0.01 0.01 0.01 0.02 0.02 0.02 0.02 0.02 0.03 0.05 0.12 0.31 0.44 0.78 1.00 0.83 0.97 0.73 0.46 0.33 0.29 0.29 0.40 0.57 0.68 0.77 0.79 0.99 1.38 1.80 2.14 2.38 2.28 1.99 1.81 1.79 1.69 1.64 1.57 1.50 1.65 1.53 1.47 1.27
0.01 0.01 0.01 0.01 0.01 0.01 0.01 0.02 0.08 0.18 0.32 0.64 0.63 0.65 0.93 0.71 0.54 0.39 0.28 0.20 0.21 0.23 0.27 0.36 0.43 0.53 0.67 0.80 1.04 1.32 1.65 1.94 1.98 1.83 1.73 1.75 1.77 1.75 1.62 1.42 1.39 1.31 1.32 1.28
0.06 0.06 0.03 0.02 0.01 0.02 0.02 0.03 0.18 0.40 0.66 0.86 0.51 0.66 1.02 0.59 0.41 0.26 0.21 0.19 0.19 0.17 0.22 0.32 0.40 0.42 0.51 0.60 0.73 0.92 1.21 1.42 1.60 1.67 1.68 1.66 1.76 1.75 1.57 1.40 1.34 1.34 1.19 1.12
0.09 0.15 0.06 0.02 0.02 0.02 0.02 0.02 0.07 0.15 0.28 0.44 0.50 1.12 0.98 0.42 0.27 0.23 0.19 0.20 0.18 0.18 0.19 0.30 0.40 0.41 0.42 0.46 0.59 0.74 0.95 1.16 1.36 1.48 1.54 1.55 1.51 1.41 1.39 1.46 1.37 1.32 1.27 1.20
0.03 0.04 0.03 0.02 0.02 0.02 0.02 0.02 0.03 0.04 0.07 0.27 0.61 0.79 0.52 0.25 0.22 0.24 0.21 0.21 0.20 0.24 0.30 0.36 0.46 0.48 0.37 0.38 0.47 0.55 0.73 0.91 1.06 1.27 1.37 1.30 1.32 1.23 1.23 1.28 1.27 1.22 1.30 1.31
0.02 0.01 0.02 0.02 0.02 0.03 0.03 0.02 0.02 0.02 0.05 0.19 0.45 0.70 0.72 0.44 0.33 0.28 0.25 0.24 0.21 0.27 0.41 0.45 0.41 0.44 0.37 0.35 0.42 0.50 0.65 0.76 0.85 1.03 1.10 1.03 1.21 1.21 1.29 1.26 1.18 1.11 1.10 1.13
0.02 0.01 0.01 0.02 0.03 0.04 0.04 0.03 0.03 0.03 0.04 0.10 0.30 0.48 0.51 0.46 0.40 0.28 0.23 0.26 0.32 0.31 0.43 0.44 0.40 0.42 0.39 0.37 0.41 0.48 0.63 0.72 0.77 0.90 0.94 1.00 1.06 1.09 1.15 1.18 1.19 1.16 1.11 1.10
0.02 0.02 0.01 0.03 0.04 0.03 0.05 0.06 0.06 0.05 0.05 0.06 0.12 0.24 0.26 0.31 0.37 0.31 0.30 0.36 0.39 0.28 0.29 0.35 0.40 0.46 0.35 0.35 0.40 0.44 0.52 0.58 0.63 0.79 0.92 0.97 1.06 1.07 1.06 1.10 1.27 1.29 1.25 1.24
0.02 0.02 0.02 0.07 0.12 0.10 0.06 0.06 0.07 0.07 0.06 0.05 0.10 0.21 0.21 0.23 0.33 0.32 0.36 0.42 0.41 0.36 0.31 0.40 0.47 0.43 0.36 0.36 0.40 0.44 0.50 0.55 0.59 0.69 0.81 0.92 0.99 1.06 1.13 1.25 1.40 1.51 1.47 1.46
0.02 0.01 0.02 0.06 0.14 0.20 0.15 0.08 0.07 0.07 0.05 0.05 0.08 0.15 0.21 0.29 0.33 0.31 0.35 0.42 0.43 0.42 0.32 0.36 0.51 0.50 0.42 0.40 0.44 0.45 0.53 0.61 0.71 0.85 0.97 1.03 1.17 1.28 1.35 1.38 1.51 1.57 1.63 1.68
0.02 0.01 0.02 0.03 0.06 0.11 0.11 0.08 0.07 0.06 0.05 0.05 0.07 0.11 0.21 0.32 0.36 0.35 0.36 0.41 0.42 0.37 0.37 0.48 0.58 0.63 0.59 0.56 0.54 0.56 0.68 0.79 0.97 1.15 1.20 1.21 1.32 1.44 1.59 1.76 1.81 1.85 1.89 1.88
0.04 0.04 0.04 0.04 0.07 0.08 0.07 0.06 0.06 0.06 0.05 0.06 0.08 0.13 0.20 0.29 0.32 0.28 0.29 0.32 0.36 0.41 0.42 0.49 0.65 0.75 0.79 0.82 0.80 0.84 0.94 1.11 1.34 1.57 1.65 1.75 1.84 1.94 2.01 2.05 2.06 2.13 2.16 2.12
0.14 0.13 0.12 0.10 0.10 0.11 0.08 0.08 0.08 0.07 0.08 0.09 0.13 0.18 0.25 0.33 0.34 0.40 0.40 0.39 0.49 0.55 0.59 0.62 0.76 0.84 0.93 0.96 0.97 1.07 1.16 1.36 1.54 1.67 1.72 1.84 1.94 2.03 2.09 2.13 2.17 2.13 2.11 2.05
0.34 0.29 0.22 0.17 0.19 0.20 0.12 0.14 0.14 0.15 0.19 0.22 0.21 0.25 0.32 0.41 0.43 0.47 0.50 0.47 0.50 0.60 0.73 0.75 0.82 0.88 0.90 1.00 1.11 1.20 1.24 1.30 1.53 1.67 1.73 1.73 1.75 1.82 1.96 2.08 2.06 1.97 1.93 1.90
0.41 0.47 0.41 0.29 0.26 0.27 0.27 0.25 0.25 0.29 0.37 0.33 0.37 0.44 0.46 0.47 0.48 0.50 0.54 0.68 0.67 0.64 0.70 0.75 0.85 0.89 0.93 0.97 1.04 1.03 1.08 1.19 1.33 1.41 1.49 1.53 1.62 1.73 1.81 1.88 1.93 1.94 1.89 1.71
0.32 0.35 0.41 0.42 0.42 0.40 0.40 0.44 0.35 0.38 0.64 0.64 0.65 0.66 0.65 0.66 0.73 0.67 0.54 0.55 0.60 0.63 0.64 0.70 0.83 0.87 0.92 0.95 0.96 0.99 1.07 1.21 1.38 1.52 1.60 1.69 1.77 1.85 1.81 1.85 1.90 1.87 1.79 1.70
0.45 0.47 0.45 0.45 0.48 0.51 0.47 0.43 0.43 0.70 0.94 0.95 1.01 0.99 0.88 0.87 0.82 0.72 0.58 0.53 0.53 0.58 0.62 0.67 0.79 0.92 0.93 0.96 1.03 1.12 1.21 1.30 1.43 1.51 1.59 1.64 1.70 1.76 1.79 1.85 1.81 1.80 1.78 1.72
0.63 0.64 0.62 0.64 0.80 0.94 0.72 0.63 0.82 0.98 0.77 0.81 0.98 1.16 1.14 1.05 0.91 0.74 0.58 0.51 0.50 0.48 0.54 0.68 0.77 0.88 0.97 1.07 1.19 1.26 1.26 1.30 1.40 1.55 1.62 1.61 1.65 1.66 1.68 1.73 1.71 1.70 1.67 1.59
0.73 0.81 0.89 0.94 1.09 1.01 0.85 0.86 0.82 0.91 1.03 1.06 1.14 1.28 1.30 1.15 0.94 0.81 0.69 0.61 0.53 0.50 0.54 0.60 0.69 0.84 0.93 1.07 1.21 1.31 1.36 1.45 1.48 1.58 1.69 1.73 1.70 1.68 1.73 1.84 1.88 1.78 1.69 1.62
0.76 0.66 0.84 1.13 1.27 1.09 0.92 0.92 0.92 0.99 1.15 1.19 1.13 1.11 1.12 1.04 0.91 0.88 0.86 0.76 0.75 0.71 0.69 0.71 0.79 0.85 0.92 1.01 1.12 1.24 1.35 1.44 1.58 1.64 1.69 1.75 1.77 1.77 1.79 1.85 1.84 1.76 1.66 1.57
0.81 0.84 0.99 1.33 1.50 1.41 1.25 1.15 1.08 1.10 1.07 1.15 1.07 1.08 1.04 0.99 0.92 0.91 0.95 0.99 0.96 0.88 0.85 0.86 0.91 0.94 0.97 1.03 1.13 1.28 1.38 1.45 1.55 1.66 1.70 1.70 1.69 1.74 1.76 1.74 1.70 1.60 1.51 1.44
0.89 1.05 1.30 1.63 1.63 1.73 1.63 1.35 1.19 1.23 1.19 1.15 1.08 1.12 1.14 1.07 0.98 0.97 1.04 1.06 1.03 0.96 0.91 0.91 0.94 0.95 0.97 1.04 1.16 1.23 1.39 1.55 1.64 1.63 1.55 1.49 1.41 1.41 1.44 1.43 1.44 1.49 1.35 1.35